Location: Keppel Henge
(44.7900°N, 80.9447°W)
Time: 18:45:46
(UTC-05:00)

Vanguard 1 Rocket - Pass Details

Date: 26 October 2017
Orbit: 655 x 4222 km, 34.3° (Epoch: 22 November)

Event Time Altitude Azimuth Distance (km) Brightness Sun altitude
Rises 04:28:27 0° 208° (SSW) 7,312 - -36.6°
Reaches altitude 10° 04:35:54 10° 195° (SSW) 5,579 - -35.4°
Exits shadow 04:36:58 12° 192° (SSW) 5,334 11.0 -35.2°
Maximum altitude 04:45:14 19° 157° (SSE) 3,782 10.5 -33.8°
Drops below altitude 10° 04:51:40 10° 116° (ESE) 3,682 11.0 -32.7°
Sets 04:55:08 0° 98° (E) 4,212 11.7 -32.1°
